User: anonymous   Login
Location: Unspecified
(0.0000°N, 0.0000°E)
Time: 06:22:04
(UTC+00:00)
Language:

Transit 4B - Orbit

View from above orbital plane
View from above orbital plane
View from above satellite
View from above satellite

Ground track
Ground track

The orbit data is extracted from the following two-line orbital elements,

1   202U 61031A   18267.85621696 +.00000029 +00000-0 +96494-5 0  9990
2   202 032.4377 094.7055 0101034 021.7407 338.7462 13.63518188835533
Epoch (UTC): 24 September 2018 20:32:57
Eccentricity: 0.0101034
inclination: 32.4377°
perigee height: 948 km
apogee height: 1098 km
right ascension of ascending node: 94.7055°
argument of perigee: 21.7407°
revolutions per day: 13.63518188
mean anomaly at epoch: 338.7462°
orbit number at epoch: 83553

The dashed part of the orbit path shows where the satellite is in the earth's shadow,  

DLR